Weather Roundup
Issued by NWS

Home | Current Version | Previous Version | Text Only | Print | Product List | Glossary On
Versions: 1 2 3 4 5 6 7 8 9 10 11 12 13 14 15 16 17 18 19 20 21 22 23 24 25 26 27 28 29 30 31 32 33 34 35 36 37 38 39 40 41 42 43 44 45 46 47 48 49 50
000
NZUS93 KARX 200159
HRRWXR

CURRENT HOURLY OBSERVATIONS ACROSS
MUCH OF THE UPPER MISSISSIPPI VALLEY
NATIONAL WEATHER SERVICE LA CROSSE WI
800 PM CST SUN FEB 19 2017


...SOUTHEAST MINNESOTA...


CITY           SKY/WX    TMP DP  RH WIND       PRES   REMARKS
ROCHESTER      PTCLDY    46  39  76 SE14      29.92S
ROCHESTER/MAYO FAIR      52  40  64 SE10      29.92S
WINONA         CLOUDY    48  36  61 S5        29.96R
AUSTIN         CLOUDY    46  39  76 SE9       29.90S
ALBERT LEA     PTCLDY    52  45  76 SE10      29.88R
DODGE CENTER   NOT AVBL
PRESTON        PTCLDY    48  38  67 SE9       29.94S
OWATONNA       PTCLDY    50  43  76 SE15      29.88S
FARIBAULT      PTCLDY    52  43  71 SE12      29.88S
$$

...ELSEWHERE IN MINNESOTA...


CITY           SKY/WX    TMP DP  RH WIND       PRES   REMARKS
MINNEAPOLIS    CLOUDY    52  39  61 SE16      29.88S
INTNL FALLS    CLOUDY    41  30  65 E13       29.84F
DULUTH         CLOUDY    37  30  75 E20       29.93F WCI  27
RED WING       PTCLDY    52  36  54 SE10      29.91S
REDWOOD FALLS  PTCLDY    54  49  83 SE18      29.76S
MANKATO          N/A     51  45  79 SE16      29.84R
WORTHINGTON    CLOUDY    54  47  77 SE14      29.77F
FAIRMONT       CLOUDY    52  48  86 SE12      29.84R
$$

...SOUTHWEST WISCONSIN...


CITY           SKY/WX    TMP DP  RH WIND       PRES   REMARKS
LA CROSSE      CLOUDY    53  38  56 SE7       29.97R
PRAIRIE DU CHI PTCLDY    53  35  51 E8        29.98R
BOSCOBEL       CLOUDY    55  37  50 CALM      30.00R
LONE ROCK      NOT AVBL
PLATTEVILLE    CLOUDY    49  38  67 E9        30.01R
FORT MC COY    CLOUDY    43  34  70 CALM      30.00S
MAUSTON-NEW LI CLOUDY    46  36  68 CALM      30.00S
VIROQUA        FAIR      50  38  64 CALM      29.99R
WIS DELLS      MOCLDY    52  35  52 SE3       30.02S
$$

...ELSEWHERE IN WISCONSIN...


CITY           SKY/WX    TMP DP  RH WIND       PRES   REMARKS
MILWAUKEE      MOCLDY    41  31  67 SE3       30.09R
MADISON        MOCLDY    49  35  58 CALM      30.03R
GREEN BAY      CLOUDY    39  32  76 SE3       30.10R
EAU CLAIRE     NOT AVBL
BLACK RVR FLS  FAIR      40  30  66 CALM      29.98S
MEDFORD        CLOUDY    47  30  51 E7        30.01S
WAUSAU         CLOUDY    46  31  55 E6        30.03R
WIS RAPIDS     CLOUDY    49  33  54 SE6       30.03S
MARSHFIELD     CLOUDY    47  31  53 SE7       30.01R
RICE LAKE      CLOUDY    48  32  53 CALM      29.95F
$$

...NORTHEAST IOWA...


CITY           SKY/WX    TMP DP  RH WIND       PRES   REMARKS
WATERLOO       MOCLDY    53  41  63 SE9       29.92S
DUBUQUE        PTCLDY    53  37  54 SE12      29.99R
DECORAH        MOCLDY    50  39  66 SE9       29.94F
MASON CITY     CLOUDY    50  44  80 SE10      29.90R
CHARLES CITY   CLOUDY    54  45  71 SE13      29.92R
OELWEIN        CLOUDY    52  43  71 SE12      29.95S
$$

...ELSEWHERE IN IOWA...


CITY           SKY/WX    TMP DP  RH WIND       PRES   REMARKS
DES MOINES     CLOUDY    62  47  57 SE12      29.89S
IOWA CITY      CLOUDY    56  44  64 SE5       29.98R
FORT DODGE     CLOUDY    61  46  59 S12G17    29.86S
MARSHALLTOWN   PTCLDY    55  46  71 SE8       29.91R
CEDAR RAPIDS   PTCLDY    56  45  66 SE8       29.95R
$$

...NORTHERN ILLINOIS...


CITY           SKY/WX    TMP DP  RH WIND       PRES   REMARKS
CHICAGO-OHARE  CLOUDY    48  31  51 SE6       30.07R
CHICAGO-MIDWAY MOCLDY    49  30  48 E3        30.08S
MOLINE         CLOUDY    59  44  57 SE12      29.99S
ROCKFORD       CLOUDY    53  39  59 SE9       30.05S
PEORIA         CLOUDY    60  46  59 S7        30.04R
$$

NOTE: "FAIR" INDICATES FEW OR NO CLOUDS BELOW 12,000 FEET WITH NO
SIGNIFICANT WEATHER AND/OR OBSTRUCTIONS TO VISIBILITY. WIND
SPEEDS ARE IN MILES-PER-HOUR.




USA.gov is the U.S. government's official web portal to all federal, state and local government web resources and services.